EW1931 Weather Reports


time (UTC)temp
C
wind
direction
speed
KPH
gust
KPH
rain 1hr
cm
rain 24hr
cm
rain mn
cm
humidity
%
barometer
mb
20260905040005 12 21 8.0 11.3 0.00 0.00 0.00 56 1012.2
20260905034502 12 19 11.3 14.5 0.00 0.00 0.00 55 1011.9
20260905033058 13 30 12.9 14.5 0.00 0.00 0.00 52 1011.5
20260905031554 13 31 8.0 11.3 0.00 0.00 0.00 51 1011.8
20260905030053 13 14 11.3 14.5 0.00 0.00 0.00 50 1011.3
20260905024548 15 355 9.7 16.1 0.00 0.00 0.00 48 1010.9
20260905023043 16 11 9.7 14.5 0.00 0.00 0.00 45 1010.9
20260905021523 17 341 9.7 12.9 0.00 0.00 0.00 42 1010.9
20260905020025 18 355 11.3 19.3 0.00 0.00 0.00 40 1010.2
20260905014559 19 342 14.5 29.0 0.00 0.00 0.00 38 1009.7
20260905013101 20 5 16.1 32.2 0.00 0.00 0.00 37 1009.4
20260905011539 20 334 27.4 38.6 0.00 0.00 0.00 35 1008.8
20260905010038 21 336 25.7 35.4 0.00 0.00 0.00 34 1008.9
20260905004521 21 351 27.4 37.0 0.00 0.00 0.00 34 1008.9
20260905003020 21 25 22.5 35.4 0.00 0.00 0.00 33 1009.1
20260905001502 22 331 27.4 38.6 0.00 0.00 0.00 33 1008.7
20260905000100 22 348 30.6 40.2 0.00 0.00 0.00 33 1008.7
20260904234547 22 329 29.0 45.1 0.00 0.00 0.00 32 1008.3
20260904233039 23 327 30.6 43.5 0.00 0.00 0.00 31 1008.4
20260904231521 24 336 27.4 51.5 0.00 0.00 0.00 31 1008.3
20260904230020 24 294 25.7 38.6 0.00 0.00 0.00 31 1008.3
20260904224507 23 308 22.5 41.8 0.00 0.00 0.00 30 1008.2
20260904223007 23 296 27.4 37.0 0.00 0.00 0.00 31 1008.2
20260904221505 24 304 29.0 37.0 0.00 0.00 0.00 31 1008.1
20260904220004 24 290 25.7 40.2 0.00 0.00 0.00 30 1007.9
20260904214506 24 307 32.2 40.2 0.00 0.00 0.00 30 1007.9
20260904213108 25 316 30.6 38.6 0.00 0.00 0.00 30 1007.5
20260904211601 25 271 29.0 40.2 0.00 0.00 0.00 30 1007.1
20260904210107 24 279 32.2 43.5 0.00 0.00 0.00 30 1007.1
20260904204536 24 296 27.4 38.6 0.00 0.00 0.00 30 1007.0
20260904203043 23 292 30.6 40.2 0.00 0.00 0.00 31 1006.8
20260904201516 23 290 22.5 40.2 0.00 0.00 0.00 32 1006.8
20260904200016 22 257 22.5 33.8 0.00 0.00 0.00 33 1006.8
20260904194555 22 309 24.1 32.2 0.00 0.00 0.00 35 1006.6
20260904193057 22 258 24.1 32.2 0.00 0.00 0.00 36 1006.4
20260904191533 21 259 20.9 30.6 0.00 0.00 0.00 37 1006.2
20260904190029 21 262 22.5 30.6 0.00 0.00 0.00 37 1006.1
20260904184511 21 240 22.5 30.6 0.00 0.00 0.00 38 1006.1
20260904183010 20 237 24.1 30.6 0.00 0.00 0.00 40 1006.0
20260904181550 21 246 24.1 33.8 0.00 0.00 0.00 40 1006.0
20260904180049 20 244 19.3 29.0 0.00 0.00 0.00 40 1005.9
20260904174528 19 251 17.7 24.1 0.00 0.00 0.00 42 1005.8
20260904173031 18 242 12.9 20.9 0.00 0.00 0.00 42 1005.6
20260904171502 18 259 17.7 27.4 0.00 0.00 0.00 45 1005.6
20260904170100 17 261 19.3 30.6 0.00 0.00 0.00 49 1005.7
20260904164540 17 257 20.9 30.6 0.00 0.00 0.00 47 1005.6
20260904163040 17 244 20.9 33.8 0.00 0.00 0.00 47 1005.4
20260904161518 18 232 22.5 32.2 0.00 0.00 0.00 42 1005.1
20260904160027 19 220 14.5 19.3 0.00 0.00 0.00 41 1004.8
20260904154601 18 269 6.4 9.7 0.00 0.00 0.00 48 1004.5
20260904153101 17 14 6.4 9.7 0.00 0.00 0.00 48 1004.0
20260904151542 16 30 4.8 9.7 0.00 0.00 0.00 51 1004.1
20260904150045 16 45 8.0 11.3 0.00 0.00 0.00 52 1004.1
20260904144522 15 60 6.4 9.7 0.00 0.00 0.00 55 1004.1
20260904143023 15 48 8.0 11.3 0.00 0.00 0.00 55 1004.2
20260904141507 14 18 6.4 8.0 0.00 0.00 0.00 59 1004.4
20260904140004 13 18 3.2 8.0 0.00 0.00 0.00 61 1004.5
20260904134550 12 18 4.8 11.3 0.00 0.00 0.00 62 1004.5
20260904133052 12 5 6.4 11.3 0.00 0.00 0.00 64 1004.6
20260904131528 11 18 8.0 12.9 0.00 0.00 0.00 67 1004.3
20260904130043 10 13 11.3 16.1 0.00 0.00 0.00 69 1004.3
20260904124510 10 22 11.3 14.5 0.00 0.00 0.00 68 1004.0
20260904123008 10 35 9.7 14.5 0.00 0.00 0.00 66 1004.0
20260904121550 11 38 11.3 16.1 0.00 0.00 0.00 66 1004.1
20260904120054 11 34 9.7 12.9 0.00 0.00 0.00 65 1004.2
20260904114531 12 40 9.7 14.5 0.00 0.00 0.00 63 1004.2
20260904113034 12 5 11.3 16.1 0.00 0.00 0.00 63 1004.3
20260904111522 12 13 14.5 20.9 0.00 0.00 0.00 63 1004.3
20260904110010 12 20 11.3 17.7 0.00 0.00 0.00 62 1004.6
20260904104612 12 17 11.3 17.7 0.00 0.00 0.00 61 1004.7
20260904103051 12 15 11.3 17.7 0.00 0.00 0.00 61 1004.9
20260904101551 12 26 9.7 17.7 0.00 0.00 0.00 59 1004.9
20260904100033 12 14 11.3 17.7 0.00 0.00 0.00 59 1005.0
20260904094533 12 360 12.9 17.7 0.00 0.00 0.00 58 1005.0
20260904093015 12 22 9.7 17.7 0.00 0.00 0.00 59 1005.0
20260904091515 11 30 11.3 16.1 0.00 0.00 0.00 64 1005.2
20260904090058 10 13 8.0 11.3 0.00 0.00 0.00 65 1005.3
20260904084557 11 40 8.0 14.5 0.00 0.00 0.00 64 1005.6
20260904083037 11 26 14.5 17.7 0.00 0.00 0.00 63 1005.9
20260904081534 11 11 14.5 19.3 0.00 0.00 0.00 62 1006.1
20260904080014 11 12 12.9 17.7 0.00 0.00 0.00 62 1006.3
20260904074512 11 25 12.9 16.1 0.00 0.00 0.00 61 1006.4
20260904073059 12 15 12.9 17.7 0.00 0.00 0.00 60 1006.4
20260904071555 11 38 16.1 20.9 0.00 0.00 0.00 61 1006.5
20260904070039 11 44 16.1 19.3 0.00 0.00 0.00 63 1006.5
20260904064534 11 35 12.9 16.1 0.00 0.00 0.00 62 1006.5
20260904063013 13 44 12.9 19.3 0.00 0.00 0.00 56 1006.6
20260904061524 14 41 14.5 17.7 0.00 0.00 0.00 53 1006.7
20260904054555 14 22 11.3 17.7 0.00 0.00 0.00 53 1006.8
20260904053037 15 5 11.3 17.7 0.00 0.00 0.00 52 1006.8
20260904051555 14 11 11.3 17.7 0.00 0.00 0.00 52 1006.9
20260904050024 14 25 12.9 17.7 0.00 0.00 0.00 53 1006.8
20260904044525 13 23 11.3 14.5 0.00 0.00 0.00 55 1007.0
20260904043024 13 343 9.7 16.1 0.00 0.00 0.00 55 1007.0
20260904041523 13 20 8.0 17.7 0.00 0.00 0.00 55 1007.2